Weather in Georgievka

Russia / Samara Oblast     53°16′22″N   51°00′00″E
temp.,
°C
wind,
m/s
gust,
m/s
humid.,
%
clouds,
%
prec.,
mm/h
press.,
hPa
HPBL,
m
28 november, sun
sun2801:00−7sse513865 0.0 1025266
04:00−4sse5149298 0.0 1023386
07:00−2sse61486100 0.1 1021500
10:00−1s61591100 0.2 1021566
13:00−1s71582100 0.4 1020568
16:00−2s71597100 2.9 1020510
19:00−1s61396100 1.4 1019493
22:00−1s51193100 1.6 1019412
29 november, mon
mon2901:000s51096100 0.1 1020362
04:000s4896100 0.1 1020291
07:000sse4796100 0.1 1020228
10:00+1sse4896100 0.2 1021227
13:00+1sse4996100 0.0 1020268
16:00+1sse4990100 0.0 1020276
19:00+1sse51290100 0.3 1018373
22:00+1sse71682100 0.4 1016429
30 november, tue
tue3001:00+2sse71781100 0.3 1014526
04:00+1sse71682100 0.3 1011450
07:00+1sse81980100 0.0 1009535
10:00+2s102177100 0.0 1006625
13:00+2s102287100 1.2 1001708
16:00+2s101995100 4.0 1000512
19:00+3s91899100 0.0 1000468
22:00+3s71598100 0.0 1000451
1 december, wed
wed101:00+2s61398100 0.0 1000294
04:00+2sse49100100 0.0 999260
07:00+2se49100100 0.0 998223
10:00+2se4997100 0.1 996256
13:00+1ese61193100 1.7 991341
16:00+2sse51196100 5.4 988411
19:00+2s61496100 0.6 987448
22:00+1wnw121796100 2.3 989802
2 december, thu
thu201:00−1wsw7128089 0.1 997702
04:00−2wsw61282100 0.1 1000634
07:00−2sw6118680 0.0 1002617
10:00−1sw6118335 0.0 1004770
13:000wsw7107996 0.1 10061137
16:00−1wsw6117838 0.2 1008734
19:00−2wsw51175100 0.0 1010575
22:00−2sw61273100 0.0 1010576